"Sample Date","Sample Time","Sensor Name","Sample Value","Units","Flow Rate","Sample Interval","Sample Volume","Laser Status","Number Channels","Micron Size 0","Counts/Channel 0","Micron Size 1","Counts/Channel 1","Micron Size 2","Counts/Channel 2","Micron Size 3","Counts/Channel 3","Micron Size 4","Counts/Channel 4","Micron Size 5","Counts/Channel 5","Micron Size 6","Counts/Channel 6","Micron Size 7","Counts/Channel 7","Micron Size 8","Counts/Channel 8","Micron Size 9","Counts/Channel 9","Micron Size 10","Counts/Channel 10","Micron Size 11","Counts/Channel 11","Micron Size 12","Counts/Channel 12","Micron Size 13","Counts/Channel 13","Micron Size 14","Counts/Channel 14","Micron Size 15","Counts/Channel 15","Micron Size 16","Counts/Channel 16","Micron Size 17","Counts/Channel 17","Micron Size 18","Counts/Channel 18","Micron Size 19","Counts/Channel 19","Micron Size 20","Counts/Channel 20","Micron Size 21","Counts/Channel 21","Micron Size 22","Counts/Channel 22","Micron Size 23","Counts/Channel 23","Micron Size 24","Counts/Channel 24","Micron Size 25","Counts/Channel 25","Micron Size 26","Counts/Channel 26","Micron Size 27","Counts/Channel 27","Micron Size 28","Counts/Channel 28","Micron Size 29","Counts/Channel 29","Micron Size 30","Counts/Channel 30","Micron Size 31","Counts/Channel 31"
"07/01/06","22:00:02","AMMA06",63562.000,"cc",28297.266,6.00,2829.727,1,6,0.100,29517.000,0.200,27624.000,0.300,4429.000,0.500,1169.000,1.000,822.000,5.000,1.000
"07/01/06","22:00:08","AMMA06",63986.000,"cc",28302.682,6.00,2830.268,1,6,0.100,29501.000,0.200,27839.000,0.300,4555.000,0.500,1267.000,1.000,824.000,5.000,0
"07/01/06","22:00:14","AMMA06",63682.000,"cc",28311.996,6.00,2831.200,1,6,0.100,29350.000,0.200,27714.000,0.300,4590.000,0.500,1205.000,1.000,823.000,5.000,0
"07/01/06","22:00:20","AMMA06",63910.000,"cc",28366.080,6.00,2836.608,1,6,0.100,29541.000,0.200,27746.000,0.300,4535.000,0.500,1305.000,1.000,783.000,5.000,0
"07/01/06","22:00:26","AMMA06",63750.000,"cc",28328.848,6.00,2832.885,1,6,0.100,29451.000,0.200,27866.000,0.300,4455.000,0.500,1164.000,1.000,814.000,5.000,0
"07/01/06","22:00:32","AMMA06",63836.000,"cc",28271.025,6.00,2827.103,1,6,0.100,29515.000,0.200,27736.000,0.300,4533.000,0.500,1212.000,1.000,840.000,5.000,0
"07/01/06","22:00:38","AMMA06",63476.000,"cc",28302.729,6.00,2830.273,1,6,0.100,29392.000,0.200,27484.000,0.300,4608.000,0.500,1259.000,1.000,732.000,5.000,1.000
"07/01/06","22:00:44","AMMA06",64013.000,"cc",28352.836,6.00,2835.284,1,6,0.100,29552.000,0.200,27933.000,0.300,4471.000,0.500,1221.000,1.000,835.000,5.000,1.000
"07/01/06","22:00:50","AMMA06",63936.000,"cc",28320.602,6.00,2832.060,1,6,0.100,29509.000,0.200,27742.000,0.300,4568.000,0.500,1266.000,1.000,851.000,5.000,0
"07/01/06","22:00:56","AMMA06",63860.000,"cc",28317.875,6.00,2831.788,1,6,0.100,29617.000,0.200,27616.000,0.300,4519.000,0.500,1297.000,1.000,811.000,5.000,0
"07/01/06","22:01:02","AMMA06",63620.000,"cc",28333.471,6.00,2833.347,1,6,0.100,29329.000,0.200,27703.000,0.300,4481.000,0.500,1308.000,1.000,798.000,5.000,1.000
"07/01/06","22:01:08","AMMA06",63382.000,"cc",28245.418,6.00,2824.542,1,6,0.100,29338.000,0.200,27476.000,0.300,4514.000,0.500,1265.000,1.000,789.000,5.000,0
"07/01/06","22:01:14","AMMA06",63962.000,"cc",28369.203,6.00,2836.920,1,6,0.100,29454.000,0.200,27922.000,0.300,4496.000,0.500,1234.000,1.000,856.000,5.000,0
"07/01/06","22:01:20","AMMA06",63624.000,"cc",28278.256,6.00,2827.826,1,6,0.100,29556.000,0.200,27567.000,0.300,4521.000,0.500,1184.000,1.000,796.000,5.000,0
"07/01/06","22:01:26","AMMA06",63691.000,"cc",28312.508,6.00,2831.251,1,6,0.100,29632.000,0.200,27580.000,0.300,4504.000,0.500,1200.000,1.000,775.000,5.000,0
"07/01/06","22:01:32","AMMA06",63705.000,"cc",28338.846,6.00,2833.885,1,6,0.100,29428.000,0.200,27662.000,0.300,4626.000,0.500,1212.000,1.000,776.000,5.000,1.000
"07/01/06","22:01:38","AMMA06",63892.000,"cc",28309.881,6.00,2830.988,1,6,0.100,29525.000,0.200,27813.000,0.300,4589.000,0.500,1203.000,1.000,762.000,5.000,0
"07/01/06","22:01:44","AMMA06",63715.000,"cc",28295.201,6.00,2829.520,1,6,0.100,29365.000,0.200,27759.000,0.300,4498.000,0.500,1285.000,1.000,808.000,5.000,0
"07/01/06","22:01:50","AMMA06",63757.000,"cc",28349.695,6.00,2834.970,1,6,0.100,29376.000,0.200,27869.000,0.300,4519.000,0.500,1244.000,1.000,748.000,5.000,1.000
"07/01/06","22:01:56","AMMA06",63657.000,"cc",28301.746,6.00,2830.175,1,6,0.100,29379.000,0.200,27621.000,0.300,4611.000,0.500,1260.000,1.000,786.000,5.000,0
"07/01/06","22:02:02","AMMA06",63681.000,"cc",28300.287,6.00,2830.029,1,6,0.100,29230.000,0.200,27864.000,0.300,4587.000,0.500,1262.000,1.000,738.000,5.000,0
"07/01/06","22:02:08","AMMA06",64172.000,"cc",28307.566,6.00,2830.757,1,6,0.100,29564.000,0.200,28028.000,0.300,4529.000,0.500,1238.000,1.000,813.000,5.000,0
"07/01/06","22:02:14","AMMA06",63940.000,"cc",28374.883,6.00,2837.489,1,6,0.100,29234.000,0.200,28028.000,0.300,4546.000,0.500,1306.000,1.000,825.000,5.000,1.000
"07/01/06","22:02:20","AMMA06",63902.000,"cc",28322.445,6.00,2832.245,1,6,0.100,29186.000,0.200,28069.000,0.300,4574.000,0.500,1261.000,1.000,812.000,5.000,0
"07/01/06","22:02:26","AMMA06",63771.000,"cc",28286.025,6.00,2828.603,1,6,0.100,29453.000,0.200,27667.000,0.300,4597.000,0.500,1243.000,1.000,811.000,5.000,0
"07/01/06","22:02:32","AMMA06",63932.000,"cc",28312.852,6.00,2831.285,1,6,0.100,29213.000,0.200,28194.000,0.300,4520.000,0.500,1224.000,1.000,781.000,5.000,0
"07/01/06","22:02:38","AMMA06",63811.000,"cc",28315.156,6.00,2831.516,1,6,0.100,29008.000,0.200,28246.000,0.300,4547.000,0.500,1259.000,1.000,750.000,5.000,1.000
"07/01/06","22:02:44","AMMA06",63927.000,"cc",28305.563,6.00,2830.556,1,6,0.100,29126.000,0.200,28157.000,0.300,4643.000,0.500,1221.000,1.000,780.000,5.000,0
"07/01/06","22:02:50","AMMA06",64266.000,"cc",28344.658,6.00,2834.466,1,6,0.100,29355.000,0.200,28136.000,0.300,4697.000,0.500,1221.000,1.000,855.000,5.000,2.000
"07/01/06","22:02:56","AMMA06",63739.000,"cc",28331.324,6.00,2833.133,1,6,0.100,28980.000,0.200,28059.000,0.300,4616.000,0.500,1263.000,1.000,821.000,5.000,0
"07/01/06","22:03:02","AMMA06",63508.000,"cc",28329.033,6.00,2832.904,1,6,0.100,28770.000,0.200,27990.000,0.300,4637.000,0.500,1255.000,1.000,855.000,5.000,1.000
"07/01/06","22:03:08","AMMA06",63693.000,"cc",28303.389,6.00,2830.339,1,6,0.100,28860.000,0.200,28208.000,0.300,4575.000,0.500,1269.000,1.000,780.000,5.000,1.000
"07/01/06","22:03:14","AMMA06",64108.000,"cc",28256.844,6.00,2825.685,1,6,0.100,29020.000,0.200,28286.000,0.300,4724.000,0.500,1271.000,1.000,806.000,5.000,1.000
"07/01/06","22:03:20","AMMA06",63931.000,"cc",28307.959,6.00,2830.796,1,6,0.100,28707.000,0.200,28270.000,0.300,4887.000,0.500,1253.000,1.000,812.000,5.000,2.000
"07/01/06","22:03:26","AMMA06",63687.000,"cc",28382.293,6.00,2838.230,1,6,0.100,28692.000,0.200,28207.000,0.300,4804.000,0.500,1176.000,1.000,808.000,5.000,0
"07/01/06","22:03:32","AMMA06",64117.000,"cc",28342.455,6.00,2834.246,1,6,0.100,28901.000,0.200,28308.000,0.300,4829.000,0.500,1252.000,1.000,826.000,5.000,1.000
"07/01/06","22:03:38","AMMA06",63406.000,"cc",28344.815,6.00,2834.482,1,6,0.100,28580.000,0.200,28001.000,0.300,4789.000,0.500,1239.000,1.000,797.000,5.000,0
"07/01/06","22:03:44","AMMA06",63963.000,"cc",28279.897,6.00,2827.990,1,6,0.100,28819.000,0.200,28161.000,0.300,4898.000,0.500,1268.000,1.000,817.000,5.000,0
"07/01/06","22:03:50","AMMA06",64067.000,"cc",28306.342,6.00,2830.634,1,6,0.100,28954.000,0.200,28233.000,0.300,4934.000,0.500,1178.000,1.000,768.000,5.000,0
"07/01/06","22:03:56","AMMA06",64336.000,"cc",28311.881,6.00,2831.188,1,6,0.100,28663.000,0.200,28733.000,0.300,4867.000,0.500,1284.000,1.000,789.000,5.000,0
"07/01/06","22:04:02","AMMA06",63837.000,"cc",28253.055,6.00,2825.306,1,6,0.100,28714.000,0.200,28217.000,0.300,4875.000,0.500,1221.000,1.000,808.000,5.000,2.000
"07/01/06","22:04:08","AMMA06",63465.000,"cc",28319.815,6.00,2831.982,1,6,0.100,28477.000,0.200,28065.000,0.300,4790.000,0.500,1267.000,1.000,866.000,5.000,0
"07/01/06","22:04:14","AMMA06",64154.000,"cc",28306.475,6.00,2830.648,1,6,0.100,28694.000,0.200,28533.000,0.300,4809.000,0.500,1295.000,1.000,823.000,5.000,0
"07/01/06","22:04:20","AMMA06",63906.000,"cc",28350.811,6.00,2835.081,1,6,0.100,28556.000,0.200,28362.000,0.300,4940.000,0.500,1209.000,1.000,839.000,5.000,0
"07/01/06","22:04:26","AMMA06",64105.000,"cc",28358.438,6.00,2835.844,1,6,0.100,28665.000,0.200,28504.000,0.300,4872.000,0.500,1251.000,1.000,811.000,5.000,2.000
"07/01/06","22:04:32","AMMA06",63572.000,"cc",28352.244,6.00,2835.225,1,6,0.100,28582.000,0.200,28095.000,0.300,4913.000,0.500,1180.000,1.000,801.000,5.000,1.000
"07/01/06","22:04:38","AMMA06",63549.000,"cc",28326.324,6.00,2832.633,1,6,0.100,28455.000,0.200,28207.000,0.300,4809.000,0.500,1256.000,1.000,821.000,5.000,1.000
"07/01/06","22:04:44","AMMA06",63718.000,"cc",28269.315,6.00,2826.932,1,6,0.100,28519.000,0.200,28288.000,0.300,4849.000,0.500,1232.000,1.000,830.000,5.000,0
"07/01/06","22:04:50","AMMA06",63533.000,"cc",28300.846,6.00,2830.085,1,6,0.100,28373.000,0.200,28115.000,0.300,4974.000,0.500,1242.000,1.000,829.000,5.000,0
"07/01/06","22:04:56","AMMA06",63781.000,"cc",28372.584,6.00,2837.259,1,6,0.100,28367.000,0.200,28470.000,0.300,4900.000,0.500,1204.000,1.000,839.000,5.000,1.000
"07/01/06","22:05:02","AMMA06",63333.000,"cc",28296.326,6.00,2829.633,1,6,0.100,28084.000,0.200,28322.000,0.300,4894.000,0.500,1203.000,1.000,828.000,5.000,2.000
"07/01/06","22:05:08","AMMA06",63878.000,"cc",28293.883,6.00,2829.388,1,6,0.100,28271.000,0.200,28608.000,0.300,4926.000,0.500,1215.000,1.000,858.000,5.000,0
"07/01/06","22:05:14","AMMA06",63891.000,"cc",28295.936,6.00,2829.594,1,6,0.100,28396.000,0.200,28416.000,0.300,5019.000,0.500,1257.000,1.000,801.000,5.000,2.000
"07/01/06","22:05:20","AMMA06",63639.000,"cc",28344.061,6.00,2834.406,1,6,0.100,28485.000,0.200,28179.000,0.300,4937.000,0.500,1250.000,1.000,788.000,5.000,0
"07/01/06","22:05:26","AMMA06",64012.000,"cc",28302.848,6.00,2830.285,1,6,0.100,28295.000,0.200,28690.000,0.300,4951.000,0.500,1256.000,1.000,820.000,5.000,0
"07/01/06","22:05:32","AMMA06",64090.000,"cc",28291.240,6.00,2829.124,1,6,0.100,28400.000,0.200,28650.000,0.300,4974.000,0.500,1250.000,1.000,815.000,5.000,1.000
"07/01/06","22:05:38","AMMA06",64560.000,"cc",28304.801,6.00,2830.480,1,6,0.100,28798.000,0.200,28700.000,0.300,4875.000,0.500,1297.000,1.000,889.000,5.000,1.000
"07/01/06","22:05:44","AMMA06",63989.000,"cc",28389.111,6.00,2838.911,1,6,0.100,28307.000,0.200,28625.000,0.300,4971.000,0.500,1247.000,1.000,839.000,5.000,0
"07/01/06","22:05:50","AMMA06",63681.000,"cc",28328.832,6.00,2832.883,1,6,0.100,28413.000,0.200,28302.000,0.300,4977.000,0.500,1186.000,1.000,803.000,5.000,0
"07/01/06","22:05:56","AMMA06",63655.000,"cc",28299.762,6.00,2829.976,1,6,0.100,28380.000,0.200,28301.000,0.300,4864.000,0.500,1219.000,1.000,891.000,5.000,0
"07/01/06","22:06:02","AMMA06",63504.000,"cc",28285.697,6.00,2828.570,1,6,0.100,28327.000,0.200,28140.000,0.300,4980.000,0.500,1235.000,1.000,822.000,5.000,0
"07/01/06","22:06:08","AMMA06",63953.000,"cc",28325.367,6.00,2832.537,1,6,0.100,28253.000,0.200,28509.000,0.300,5042.000,0.500,1279.000,1.000,870.000,5.000,0
"07/01/06","22:06:14","AMMA06",63563.000,"cc",28366.912,6.00,2836.691,1,6,0.100,28245.000,0.200,28288.000,0.300,4962.000,0.500,1236.000,1.000,831.000,5.000,1.000
"07/01/06","22:06:20","AMMA06",63543.000,"cc",28259.506,6.00,2825.951,1,6,0.100,28224.000,0.200,28256.000,0.300,4962.000,0.500,1267.000,1.000,833.000,5.000,1.000
"07/01/06","22:06:26","AMMA06",63602.000,"cc",28326.781,6.00,2832.678,1,6,0.100,28270.000,0.200,28270.000,0.300,4974.000,0.500,1262.000,1.000,826.000,5.000,0
"07/01/06","22:06:32","AMMA06",63401.000,"cc",28355.992,6.00,2835.599,1,6,0.100,28255.000,0.200,28257.000,0.300,4868.000,0.500,1181.000,1.000,840.000,5.000,0
"07/01/06","22:06:38","AMMA06",63494.000,"cc",28323.551,6.00,2832.355,1,6,0.100,28238.000,0.200,28250.000,0.300,4941.000,0.500,1210.000,1.000,855.000,5.000,0
"07/01/06","22:06:44","AMMA06",63479.000,"cc",28262.973,6.00,2826.297,1,6,0.100,28366.000,0.200,28106.000,0.300,4893.000,0.500,1277.000,1.000,837.000,5.000,0
"07/01/06","22:06:50","AMMA06",63482.000,"cc",28312.166,6.00,2831.217,1,6,0.100,28000.000,0.200,28318.000,0.300,5072.000,0.500,1244.000,1.000,848.000,5.000,0
"07/01/06","22:06:56","AMMA06",63486.000,"cc",28306.451,6.00,2830.645,1,6,0.100,28267.000,0.200,28360.000,0.300,4907.000,0.500,1156.000,1.000,795.000,5.000,1.000
"07/01/06","22:07:02","AMMA06",64256.000,"cc",28286.617,6.00,2828.662,1,6,0.100,28660.000,0.200,28687.000,0.300,4914.000,0.500,1222.000,1.000,769.000,5.000,4.000
"07/01/06","22:07:08","AMMA06",63664.000,"cc",28369.043,6.00,2836.905,1,6,0.100,28403.000,0.200,28208.000,0.300,4879.000,0.500,1325.000,1.000,848.000,5.000,1.000
"07/01/06","22:07:14","AMMA06",63777.000,"cc",28369.801,6.00,2836.980,1,6,0.100,28453.000,0.200,28258.000,0.300,5000.000,0.500,1231.000,1.000,835.000,5.000,0
"07/01/06","22:07:20","AMMA06",63253.000,"cc",28310.613,6.00,2831.062,1,6,0.100,28174.000,0.200,28140.000,0.300,4907.000,0.500,1189.000,1.000,843.000,5.000,0
"07/01/06","22:07:26","AMMA06",63432.000,"cc",28319.734,6.00,2831.974,1,6,0.100,28447.000,0.200,28068.000,0.300,4835.000,0.500,1250.000,1.000,832.000,5.000,0
"07/01/06","22:07:32","AMMA06",63362.000,"cc",28299.410,6.00,2829.941,1,6,0.100,28573.000,0.200,27842.000,0.300,4857.000,0.500,1259.000,1.000,831.000,5.000,0
"07/01/06","22:07:38","AMMA06",63061.000,"cc",28319.918,6.00,2831.992,1,6,0.100,28299.000,0.200,27849.000,0.300,4834.000,0.500,1256.000,1.000,823.000,5.000,0
"07/01/06","22:07:44","AMMA06",63140.000,"cc",28319.772,6.00,2831.977,1,6,0.100,28536.000,0.200,27757.000,0.300,4809.000,0.500,1225.000,1.000,813.000,5.000,0
"07/01/06","22:07:50","AMMA06",63232.000,"cc",28261.621,6.00,2826.162,1,6,0.100,28553.000,0.200,27856.000,0.300,4850.000,0.500,1203.000,1.000,770.000,5.000,0
"07/01/06","22:07:56","AMMA06",63394.000,"cc",28339.467,6.00,2833.947,1,6,0.100,28482.000,0.200,28065.000,0.300,4713.000,0.500,1275.000,1.000,859.000,5.000,0
"07/01/06","22:08:02","AMMA06",63361.000,"cc",28330.221,6.00,2833.022,1,6,0.100,28388.000,0.200,28189.000,0.300,4785.000,0.500,1224.000,1.000,775.000,5.000,0
"07/01/06","22:08:08","AMMA06",63401.000,"cc",28275.590,6.00,2827.559,1,6,0.100,28527.000,0.200,28053.000,0.300,4783.000,0.500,1250.000,1.000,787.000,5.000,1.000
"07/01/06","22:08:14","AMMA06",63487.000,"cc",28339.272,6.00,2833.927,1,6,0.100,28724.000,0.200,28157.000,0.300,4635.000,0.500,1155.000,1.000,814.000,5.000,2.000
"07/01/06","22:08:20","AMMA06",63781.000,"cc",28324.481,6.00,2832.448,1,6,0.100,28894.000,0.200,28145.000,0.300,4717.000,0.500,1202.000,1.000,823.000,5.000,0
"07/01/06","22:08:26","AMMA06",63745.000,"cc",28325.225,6.00,2832.523,1,6,0.100,29117.000,0.200,27879.000,0.300,4723.000,0.500,1233.000,1.000,793.000,5.000,0
"07/01/06","22:08:32","AMMA06",63307.000,"cc",28301.783,6.00,2830.179,1,6,0.100,28835.000,0.200,27737.000,0.300,4696.000,0.500,1235.000,1.000,804.000,5.000,0
"07/01/06","22:08:38","AMMA06",63352.000,"cc",28329.258,6.00,2832.926,1,6,0.100,28750.000,0.200,27859.000,0.300,4718.000,0.500,1198.000,1.000,827.000,5.000,0
"07/01/06","22:08:44","AMMA06",63119.000,"cc",28331.127,6.00,2833.113,1,6,0.100,28688.000,0.200,27661.000,0.300,4677.000,0.500,1256.000,1.000,837.000,5.000,0
"07/01/06","22:08:50","AMMA06",63439.000,"cc",28299.795,6.00,2829.980,1,6,0.100,28868.000,0.200,27736.000,0.300,4681.000,0.500,1313.000,1.000,839.000,5.000,2.000
"07/01/06","22:08:56","AMMA06",63129.000,"cc",28294.275,6.00,2829.428,1,6,0.100,28746.000,0.200,27445.000,0.300,4769.000,0.500,1319.000,1.000,850.000,5.000,0
"07/01/06","22:09:02","AMMA06",63841.000,"cc",28336.658,6.00,2833.666,1,6,0.100,28972.000,0.200,28042.000,0.300,4769.000,0.500,1217.000,1.000,840.000,5.000,1.000
"07/01/06","22:09:08","AMMA06",63575.000,"cc",28381.041,6.00,2838.104,1,6,0.100,28858.000,0.200,28016.000,0.300,4665.000,0.500,1255.000,1.000,781.000,5.000,0
"07/01/06","22:09:14","AMMA06",63142.000,"cc",28328.178,6.00,2832.818,1,6,0.100,28436.000,0.200,27847.000,0.300,4754.000,0.500,1261.000,1.000,841.000,5.000,3.000
"07/01/06","22:09:20","AMMA06",63607.000,"cc",28245.527,6.00,2824.553,1,6,0.100,28974.000,0.200,27932.000,0.300,4703.000,0.500,1203.000,1.000,793.000,5.000,2.000
"07/01/06","22:09:26","AMMA06",63484.000,"cc",28289.805,6.00,2828.981,1,6,0.100,28783.000,0.200,27932.000,0.300,4719.000,0.500,1222.000,1.000,828.000,5.000,0
"07/01/06","22:09:32","AMMA06",63398.000,"cc",28305.428,6.00,2830.543,1,6,0.100,28755.000,0.200,27804.000,0.300,4748.000,0.500,1271.000,1.000,820.000,5.000,0
"07/01/06","22:09:38","AMMA06",63349.000,"cc",28316.197,6.00,2831.620,1,6,0.100,28694.000,0.200,27847.000,0.300,4685.000,0.500,1291.000,1.000,831.000,5.000,1.000
"07/01/06","22:09:44","AMMA06",63370.000,"cc",28369.772,6.00,2836.977,1,6,0.100,28590.000,0.200,27968.000,0.300,4745.000,0.500,1238.000,1.000,829.000,5.000,0
"07/01/06","22:09:50","AMMA06",63301.000,"cc",28283.643,6.00,2828.365,1,6,0.100,28516.000,0.200,27897.000,0.300,4801.000,0.500,1296.000,1.000,791.000,5.000,0
"07/01/06","22:09:56","AMMA06",63402.000,"cc",28336.822,6.00,2833.682,1,6,0.100,28828.000,0.200,27793.000,0.300,4704.000,0.500,1242.000,1.000,835.000,5.000,0
"07/01/06","22:10:02","AMMA06",63087.000,"cc",28292.400,6.00,2829.240,1,6,0.100,28478.000,0.200,27723.000,0.300,4802.000,0.500,1213.000,1.000,870.000,5.000,1.000
"07/01/06","22:10:08","AMMA06",63366.000,"cc",28356.590,6.00,2835.659,1,6,0.100,28626.000,0.200,27996.000,0.300,4714.000,0.500,1250.000,1.000,779.000,5.000,1.000
"07/01/06","22:10:14","AMMA06",63079.000,"cc",28284.498,6.00,2828.450,1,6,0.100,28628.000,0.200,27606.000,0.300,4690.000,0.500,1298.000,1.000,856.000,5.000,1.000
"07/01/06","22:10:20","AMMA06",62647.000,"cc",28328.721,6.00,2832.872,1,6,0.100,28316.000,0.200,27475.000,0.300,4721.000,0.500,1315.000,1.000,820.000,5.000,0
"07/01/06","22:10:26","AMMA06",63086.000,"cc",28307.627,6.00,2830.763,1,6,0.100,28703.000,0.200,27615.000,0.300,4741.000,0.500,1214.000,1.000,813.000,5.000,0
"07/01/06","22:10:32","AMMA06",62752.000,"cc",28348.520,6.00,2834.852,1,6,0.100,28585.000,0.200,27410.000,0.300,4758.000,0.500,1231.000,1.000,768.000,5.000,0
"07/01/06","22:10:38","AMMA06",63430.000,"cc",28320.023,6.00,2832.002,1,6,0.100,29009.000,0.200,27621.000,0.300,4656.000,0.500,1297.000,1.000,846.000,5.000,1.000
"07/01/06","22:10:44","AMMA06",62813.000,"cc",28346.430,6.00,2834.643,1,6,0.100,28485.000,0.200,27677.000,0.300,4660.000,0.500,1217.000,1.000,774.000,5.000,0
"07/01/06","22:10:50","AMMA06",63051.000,"cc",28260.631,6.00,2826.063,1,6,0.100,28750.000,0.200,27533.000,0.300,4777.000,0.500,1212.000,1.000,779.000,5.000,0
"07/01/06","22:10:56","AMMA06",63112.000,"cc",28275.809,6.00,2827.581,1,6,0.100,28686.000,0.200,27588.000,0.300,4789.000,0.500,1276.000,1.000,773.000,5.000,0
"07/01/06","22:11:02","AMMA06",62991.000,"cc",28354.082,6.00,2835.408,1,6,0.100,28637.000,0.200,27647.000,0.300,4604.000,0.500,1275.000,1.000,827.000,5.000,1.000
"07/01/06","22:11:08","AMMA06",63190.000,"cc",28328.074,6.00,2832.808,1,6,0.100,28680.000,0.200,27521.000,0.300,4867.000,0.500,1306.000,1.000,816.000,5.000,0
"07/01/06","22:11:14","AMMA06",63186.000,"cc",28275.137,6.00,2827.514,1,6,0.100,28380.000,0.200,27963.000,0.300,4738.000,0.500,1249.000,1.000,855.000,5.000,1.000
"07/01/06","22:11:20","AMMA06",63239.000,"cc",28366.693,6.00,2836.669,1,6,0.100,28788.000,0.200,27735.000,0.300,4658.000,0.500,1206.000,1.000,852.000,5.000,0
"07/01/06","22:11:26","AMMA06",63059.000,"cc",28305.365,6.00,2830.537,1,6,0.100,28791.000,0.200,27524.000,0.300,4738.000,0.500,1210.000,1.000,795.000,5.000,1.000
"07/01/06","22:11:32","AMMA06",63321.000,"cc",28340.272,6.00,2834.027,1,6,0.100,28778.000,0.200,27632.000,0.300,4869.000,0.500,1233.000,1.000,809.000,5.000,0
"07/01/06","22:11:38","AMMA06",62711.000,"cc",28303.328,6.00,2830.333,1,6,0.100,28564.000,0.200,27395.000,0.300,4719.000,0.500,1232.000,1.000,800.000,5.000,1.000
"07/01/06","22:11:44","AMMA06",63663.000,"cc",28293.613,6.00,2829.362,1,6,0.100,29063.000,0.200,27912.000,0.300,4602.000,0.500,1282.000,1.000,802.000,5.000,2.000
"07/01/06","22:11:50","AMMA06",63127.000,"cc",28334.320,6.00,2833.432,1,6,0.100,28801.000,0.200,27495.000,0.300,4747.000,0.500,1254.000,1.000,829.000,5.000,1.000
"07/01/06","22:11:56","AMMA06",62969.000,"cc",28334.356,6.00,2833.436,1,6,0.100,28679.000,0.200,27627.000,0.300,4579.000,0.500,1266.000,1.000,817.000,5.000,1.000
"07/01/06","22:12:02","AMMA06",63521.000,"cc",28300.160,6.00,2830.016,1,6,0.100,29149.000,0.200,27594.000,0.300,4684.000,0.500,1294.000,1.000,798.000,5.000,2.000
"07/01/06","22:12:08","AMMA06",63544.000,"cc",28335.248,6.00,2833.525,1,6,0.100,28935.000,0.200,27993.000,0.300,4478.000,0.500,1266.000,1.000,872.000,5.000,0
"07/01/06","22:12:14","AMMA06",63226.000,"cc",28322.264,6.00,2832.227,1,6,0.100,28962.000,0.200,27588.000,0.300,4652.000,0.500,1236.000,1.000,788.000,5.000,0
"07/01/06","22:12:20","AMMA06",62633.000,"cc",28346.580,6.00,2834.658,1,6,0.100,28510.000,0.200,27313.000,0.300,4708.000,0.500,1251.000,1.000,850.000,5.000,1.000
"07/01/06","22:12:26","AMMA06",62890.000,"cc",28299.316,6.00,2829.932,1,6,0.100,28835.000,0.200,27520.000,0.300,4546.000,0.500,1186.000,1.000,803.000,5.000,0
"07/01/06","22:12:32","AMMA06",63013.000,"cc",28301.815,6.00,2830.182,1,6,0.100,28820.000,0.200,27384.000,0.300,4674.000,0.500,1307.000,1.000,828.000,5.000,0
"07/01/06","22:12:38","AMMA06",63022.000,"cc",28338.252,6.00,2833.825,1,6,0.100,28570.000,0.200,27556.000,0.300,4774.000,0.500,1286.000,1.000,835.000,5.000,1.000
"07/01/06","22:12:44","AMMA06",63016.000,"cc",28362.723,6.00,2836.273,1,6,0.100,28705.000,0.200,27683.000,0.300,4636.000,0.500,1168.000,1.000,824.000,5.000,0
"07/01/06","22:12:50","AMMA06",63147.000,"cc",28252.686,6.00,2825.269,1,6,0.100,28707.000,0.200,27667.000,0.300,4698.000,0.500,1232.000,1.000,843.000,5.000,0
"07/01/06","22:12:56","AMMA06",63008.000,"cc",28304.320,6.00,2830.432,1,6,0.100,28569.000,0.200,27743.000,0.300,4677.000,0.500,1204.000,1.000,815.000,5.000,0
"07/01/06","22:13:02","AMMA06",63144.000,"cc",28305.859,6.00,2830.586,1,6,0.100,28691.000,0.200,27704.000,0.300,4771.000,0.500,1219.000,1.000,758.000,5.000,1.000
"07/01/06","22:13:08","AMMA06",63319.000,"cc",28339.012,6.00,2833.901,1,6,0.100,28478.000,0.200,27939.000,0.300,4789.000,0.500,1313.000,1.000,799.000,5.000,1.000
"07/01/06","22:13:14","AMMA06",63636.000,"cc",28335.311,6.00,2833.531,1,6,0.100,28724.000,0.200,27985.000,0.300,4808.000,0.500,1273.000,1.000,845.000,5.000,1.000
"07/01/06","22:13:20","AMMA06",63794.000,"cc",28333.949,6.00,2833.395,1,6,0.100,28707.000,0.200,27980.000,0.300,4902.000,0.500,1338.000,1.000,867.000,5.000,0
"07/01/06","22:13:26","AMMA06",62794.000,"cc",28304.184,6.00,2830.419,1,6,0.100,28356.000,0.200,27668.000,0.300,4765.000,0.500,1267.000,1.000,738.000,5.000,0
"07/01/06","22:13:32","AMMA06",63429.000,"cc",28318.236,6.00,2831.824,1,6,0.100,28320.000,0.200,27966.000,0.300,4899.000,0.500,1342.000,1.000,902.000,5.000,0
"07/01/06","22:13:38","AMMA06",63022.000,"cc",28311.670,6.00,2831.167,1,6,0.100,28033.000,0.200,27934.000,0.300,4940.000,0.500,1297.000,1.000,818.000,5.000,0
"07/01/06","22:13:44","AMMA06",62877.000,"cc",28301.332,6.00,2830.133,1,6,0.100,28256.000,0.200,27517.000,0.300,4939.000,0.500,1294.000,1.000,871.000,5.000,0
"07/01/06","22:13:50","AMMA06",63123.000,"cc",28285.820,6.00,2828.582,1,6,0.100,28216.000,0.200,27832.000,0.300,4966.000,0.500,1254.000,1.000,854.000,5.000,1.000
"07/01/06","22:13:56","AMMA06",62714.000,"cc",28395.107,6.00,2839.511,1,6,0.100,27683.000,0.200,27905.000,0.300,5006.000,0.500,1261.000,1.000,859.000,5.000,0
"07/01/06","22:14:02","AMMA06",63034.000,"cc",28278.393,6.00,2827.839,1,6,0.100,27988.000,0.200,27923.000,0.300,5025.000,0.500,1235.000,1.000,862.000,5.000,1.000